Overview Statistics Trail Chart Weather Telemetry Raw packets
 

This is the latest recevied weather packets stored in our database for station/object KA1AL. If no packets are shown the sender has not sent any weather packets the latest 10 day(s).

<< 48 49 50 51 52 53 54 >>
Time Temp. Humidity Pressure Rain* Wind** Luminosity Snow
1777355414 5° C 87% 1023.8 hPa 0 mm - 0 W/m² -
1777355110 5° C 87% 1024.1 hPa 0 mm - 0 W/m² -
1777354806 5.56° C 87% 1024.1 hPa 0 mm - 0 W/m² -
1777354502 5.56° C 88% 1024.2 hPa 0 mm - 0 W/m² -
1777354199 5.56° C 90% 1024.1 hPa 0 mm - 0 W/m² -
1777353895 5° C 92% 1024.3 hPa 0 mm - 0 W/m² -
1777351174 6.67° C 84% 1024.3 hPa 0 mm - 0 W/m² -
1777350874 6.67° C 84% 1024.4 hPa 0 mm - 0 W/m² -
1777350573 6.67° C 84% 1024.5 hPa 0 mm - 0 W/m² -
1777350271 7.22° C 82% 1024.5 hPa 0 mm - 0 W/m² -
1777349967 7.22° C 82% 1024.7 hPa 0 mm - 0 W/m² -
1777349363 7.22° C 82% 1024.4 hPa 0 mm - 0 W/m² -
1777349061 7.22° C 82% 1024.4 hPa 0 mm - 0 W/m² -
1777348757 7.78° C 83% 1024.3 hPa 0 mm - 0 W/m² -
1777348455 7.78° C 83% 1024.4 hPa 0 mm - 0 W/m² -
1777348153 7.78° C 83% 1024.4 hPa 0 mm - 0 W/m² -
1777347851 7.78° C 84% 1024.4 hPa 0 mm - 0 W/m² -
1777347548 7.78° C 84% 1024.6 hPa 0 mm - 0 W/m² -
1777347243 7.78° C 84% 1024.4 hPa 0 mm - 0 W/m² -
1777346940 7.78° C 83% 1024.3 hPa 0 mm - 0 W/m² -
1777346637 8.33° C 82% 1024.4 hPa 0 mm - 0 W/m² -
1777346333 8.33° C 82% 1024.6 hPa 0 mm - 0 W/m² -
1777346030 8.33° C 82% 1024.4 hPa 0 mm - 0 W/m² -
1777345727 8.33° C 81% 1024.4 hPa 0 mm - 0 W/m² -
1777345424 8.89° C 81% 1024.3 hPa 0 mm - 0 W/m² -

* Rain latest hour (hover to see other rain measurements)
** Current wind speed in m/s (hover to see current wind gust speed)